Location: Cahoon Acres
(40.8736°N, 111.8994°W)
Time: 12:03:30
(UTC+00:00)

SR - Pass Details

Date: 15 June 2020
Orbit: 583 x 872 km, 66.7° (Epoch: 14 July)

Event Time Altitude Azimuth Distance (km) Brightness Sun altitude
Rises 17:48:48 0° 186° (S) 3,278 ? 62.8°
Reaches altitude 10° 17:51:27 10° 178° (S) 2,307 ? 63.2°
Maximum altitude 17:56:13 36° 113° (ESE) 1,148 ? 63.9°
Drops below altitude 10° 18:00:40 10° 47° (NE) 2,144 ? 64.6°
Sets 18:03:02 0° 39° (NE) 3,017 ? 65.0°
